Regional Weather Roundup
Issued by NWS

Home | Current Version | Previous Version | Graphics & Text | Print | Product List | Glossary On
Versions: 1 2 3 4 5 6 7 8 9 10 11 12 13 14 15 16 17 18 19 20 21 22 23 24 25 26 27 28 29 30 31 32 33 34 35 36 37 38 39 40 41 42 43 44 45 46 47 48 49 50
000
ASUS43 KLOT 210910
RWRIL

ILLINOIS REGIONAL WEATHER ROUNDUP
NATIONAL WEATHER SERVICE CHICAGO/ROMEOVILLE IL
400 AM CDT SUN SEP 21 2014

NOTE: "FAIR" INDICATES FEW OR NO CLOUDS BELOW 12,000 FEET WITH NO
SIGNIFICANT WEATHER AND/OR OBSTRUCTIONS TO VISIBILITY.

* THESE STATIONS ARE NOT UNDER NWS QUALITY CONTROL. THEY ALSO MAY NOT
  REPORT WEATHER SUCH AS PRECIPITATION OR FOG.

ILZ001-002-007-009-015-016-024-211000-
NORTHWEST ILLINOIS

CITY           SKY/WX    TMP DP  RH WIND       PRES   REMARKS
MOLINE         CLEAR     56  51  84 W9        29.90S
STERLING*      CLEAR     55  52  88 W12       29.86S
SAVANNA*       CLEAR     57  51  80 W3        29.86R
$$

ILZ003-004-008-010-011-017-018-211000-
NORTH CENTRAL ILLINOIS

CITY           SKY/WX    TMP DP  RH WIND       PRES   REMARKS
ROCKFORD       CLEAR     56  52  86 W6        29.83S
ROCHELLE*      CLEAR     55  53  91 W7        29.84R
DE KALB*       CLEAR     56  53  90 W12       29.82R
PERU*          CLEAR     59  55  85 W12       29.86R
$$

ILZ005-006-012>014-019>023-211000-
NORTHEAST ILLINOIS

CITY           SKY/WX    TMP DP  RH WIND       PRES   REMARKS
CHICAGO-OHARE  PTCLDY    62  55  77 W16G25    29.76R
CHICAGO-MIDWAY PTCLDY    64  57  78 W15G25    29.77R
AURORA         CLEAR     59  54  83 W13       29.80R
LANSING*       CLOUDY    64  58  83 NW14G21   29.78R
JOLIET*        CLEAR     61  55  82 W7        29.82R
WAUKEGAN       CLEAR     59  53  80 W8        29.73R
DUPAGE AIRPORT CLEAR     60  56  86 W13       29.78R
KANKAKEE*      MOCLDY    64  58  82 NW14G22   29.81R
WHEELING       CLEAR     62  55  77 W17G24    29.77R
MORRIS*        PTCLDY    61  58  89 NW14G23   29.82R
ROMEOVILLE*    PTCLDY    60  56  84 NW10G22   29.81R
NORTHERLY ISL    N/A     64  55  72 W15         N/A
$$

LMZ740>746-211000-
SOUTHERN LAKE MICHIGAN

STATION/POSITION SKY/WX   TEMP    WIND        PRES    VSBY  WAVE
                          AIR SEA DIR/SP/G                  HT/PER
                          (F)     (DEG/KT/KT) (MB)    (MI)  (FT/S)
SOUTHERN BUOY              63 63  280/ 23/ 27 1005.0R         2/ 3
WAUKEGAN HARBOR            62     280/ 15/ 20   N/A
HARRISON CRIB              64     290/ 25/ 31   N/A
BURNHAM HARBOR             63     280/ 10/ 20   N/A
CALUMET HARBOR             64     270/  5/ 11 1006.7R
MICHIGAN CITY              66     250/ 22/ 26   N/A
MICHIGAN CITY 6N           65 66  300/ 19/ 27   N/A           5/ 4
ST. JOSEPH                 65 65  290/ 23/ 31   N/A           5/ 5
$$

ILZ025>027-034>036-040-047-049-050-058-095>099-211000-
WEST-CENTRAL ILLINOIS

CITY           SKY/WX    TMP DP  RH WIND       PRES   REMARKS
QUINCY         CLEAR     61  55  81 NW8       29.97R
GALESBURG*     CLEAR     56  52  86 W5        29.92S
MACOMB*        CLEAR     59  55  84 NW9       29.96R
JACKSONVILLE*  PTCLDY    67  61  82 NW15G22   29.94R
PITTSFIELD*    CLEAR     66  59  77 NW13      29.97R
$$

ILZ028>032-037-038-041>044-048-051>054-059>061-211000-
CENTRAL ILLINOIS

CITY           SKY/WX    TMP DP  RH WIND       PRES   REMARKS
PONTIAC        CLEAR     63  59  88 NW15      29.85R
DECATUR        PTCLDY    70  68  93 W14G21    29.87R
PEORIA         CLEAR     63  52  67 NW12G21   29.90R
LACON*         CLEAR     60  53  80 NW7       29.87R
LINCOLN*       CLEAR     65  58  78 NW7       29.87R
SPRINGFIELD    PTCLDY    68  63  84 NW16G24   29.90R
TAYLORVILLE    PTCLDY    70  68  94 W8        29.88S
$$

ILZ033-039-045-046-055>057-062-063-211000-
EAST-CENTRAL ILLINOIS

CITY           SKY/WX    TMP DP  RH WIND       PRES   REMARKS
CHAMPAIGN      PTCLDY    69  67  93 W12       29.85R FOG
DANVILLE*      HVY RAIN  67  67  97 W8        29.79R
RANTOUL*       PTCLDY    69  66  89 W9        29.84R FOG
MATTOON        CLEAR     70  67  90 W7        29.85R
PARIS*         PTCLDY    68  68  98 SW6       29.85R
$$

ILZ079-100>102-211000-
SOUTHWEST ILLINOIS

CITY           SKY/WX    TMP DP  RH WIND       PRES   REMARKS
ALTON          PTCLDY    71  69  94 W9        29.91R
BELLEVILLE     MOCLDY    74  71  90 SW7       29.89S
CAHOKIA*       PTCLDY    72  69  90 SW6       29.90S
SPARTA*        LGT RAIN  72  69  91 W6        29.92R
$$

ILZ064>066-069>071-074>076-080>082-084>086-088>090-092>094-211000-
SOUTH-CENTRAL ILLINOIS

CITY           SKY/WX    TMP DP  RH WIND       PRES   REMARKS
CARBONDALE     PTCLDY    72  67  84 SW10      29.91F
CAIRO*         PTCLDY    73  67  81 SW5       29.94S
EFFINGHAM*     HVY RAIN  69  66  89 W6        29.87S
MARION         CLEAR     73  68  83 SW7       29.92S
MT. VERNON     MOCLDY    72  66  83 SW7       29.90R
CENTRALIA*     PTCLDY    70  66  87 W7        29.90R
SALEM*         CLOUDY    73  70  91 W6        29.89S
METROPOLIS*    PTCLDY    71  67  88 SW3       29.93S
$$

ILZ067-068-072-073-078-083-087-091-211000-
SOUTHEAST ILLINOIS

CITY           SKY/WX    TMP DP  RH WIND       PRES   REMARKS
LAWRENCEVILLE  CLOUDY    71  69  93 SW8       29.88F
FLORA*         CLOUDY    71  68  91 SW5       29.88F
FAIRFIELD*     CLOUDY   N/A N/A N/A NW7       29.89R
HARRISBURG*    CLEAR     71  68  90 SW5       29.91F
ROBINSON*      MOCLDY    71  70  95 SW8       29.87F
CARMI*         PTCLDY    73  69  87 SW9       29.87F THUNDER
$$

ABBREVIATIONS USED IN REMARKS
   TC - TEMPERATURE IN CELSIUS
  WCI - WIND CHILL INDEX
   HX - HEAT INDEX
  VSB - VISIBILITY
$$



USA.gov is the U.S. government's official web portal to all federal, state and local government web resources and services.